When you browse on this site, cookies collect data to enhance your experience and personalize the content and advertising you see.
Visit our Privacy Policy to learn more. By continuing to use the site, you agree to this use of cookies and data.
  • In Hungary
  • List of Countries
  • For 7 days
  • Water Temperature
  • Satellite Maps
  • Weather Map
  • News
  • Weather Widgets
  • user-avatar
    Login

    Hourly Weather Krasnye Okna

    Today, 19 April, Friday

    Time Temperature Precipitation Wind Pressure Humidity
    00:00 +10°C° 0 mm 1 mps 757 mmHg 61%
    01:00 +9°C° 0 mm 1 mps 757 mmHg 64%
    02:00 +8°C° 0 mm 1 mps 756 mmHg 65%
    03:00 +7°C° 0.1 mm 0 mps 756 mmHg 68%
    04:00 +7°C° 0.1 mm 0 mps 756 mmHg 70%
    05:00 +7°C° 0.1 mm 0 mps 755 mmHg 73%
    06:00 +9°C° 0.3 mm 1 mps 755 mmHg 73%
    07:00 +9°C° 0.3 mm 1 mps 755 mmHg 73%
    08:00 +10°C° 0.3 mm 1 mps 755 mmHg 73%
    09:00 +10°C° 0.4 mm 2 mps 756 mmHg 67%
    10:00 +11°C° 0.4 mm 3 mps 756 mmHg 61%
    11:00 +12°C° 0.4 mm 4 mps 756 mmHg 55%
    12:00 +12°C° 0.3 mm 4 mps 756 mmHg 51%
    13:00 +13°C° 0.3 mm 4 mps 756 mmHg 48%
    14:00 +13°C° 0.3 mm 4 mps 757 mmHg 44%
    15:00 +13°C° 0.2 mm 4 mps 757 mmHg 44%
    16:00 +13°C° 0.2 mm 4 mps 757 mmHg 45%
    17:00 +12°C° 0.2 mm 4 mps 757 mmHg 46%
    18:00 +11°C° 0.1 mm 3 mps 757 mmHg 50%
    19:00 +10°C° 0.1 mm 3 mps 757 mmHg 55%
    20:00 +8°C° 0.1 mm 3 mps 758 mmHg 59%
    21:00 +8°C° 0 mm 3 mps 758 mmHg 61%
    22:00 +7°C° 0 mm 3 mps 758 mmHg 63%
    23:00 +5°C° 0 mm 3 mps 758 mmHg 65%

    Tomorrow, 20 April, Saturday

    Time Temperature Precipitation Wind Pressure Humidity
    00:00 +5°C° 0 mm 3 mps 759 mmHg 66%
    01:00 +4°C° 0 mm 3 mps 759 mmHg 67%
    02:00 +4°C° 0 mm 3 mps 759 mmHg 67%
    03:00 +4°C° 0 mm 3 mps 759 mmHg 68%
    04:00 +3°C° 0 mm 3 mps 759 mmHg 69%
    05:00 +3°C° 0 mm 3 mps 759 mmHg 70%
    06:00 +4°C° 0 mm 3 mps 759 mmHg 65%
    07:00 +6°C° 0 mm 4 mps 759 mmHg 60%
    08:00 +8°C° 0 mm 4 mps 760 mmHg 55%
    09:00 +9°C° 0 mm 5 mps 760 mmHg 50%
    10:00 +10°C° 0 mm 5 mps 760 mmHg 44%
    11:00 +13°C° 0 mm 5 mps 760 mmHg 39%
    12:00 +13°C° 0 mm 5 mps 759 mmHg 39%
    13:00 +13°C° 0 mm 5 mps 759 mmHg 40%
    14:00 +13°C° 0 mm 5 mps 759 mmHg 40%
    15:00 +13°C° 0 mm 4 mps 759 mmHg 41%
    16:00 +13°C° 0 mm 4 mps 758 mmHg 42%
    17:00 +12°C° 0 mm 4 mps 758 mmHg 43%
    18:00 +12°C° 0 mm 3 mps 758 mmHg 46%
    19:00 +11°C° 0 mm 3 mps 758 mmHg 50%
    20:00 +10°C° 0 mm 2 mps 759 mmHg 53%
    21:00 +10°C° 0 mm 2 mps 758 mmHg 54%
    22:00 +11°C° 0 mm 1 mps 758 mmHg 55%
    23:00 +10°C° 0 mm 1 mps 758 mmHg 56%

    Day after tomorrow, 21 April, Sunday

    Time Temperature Precipitation Wind Pressure Humidity
    00:00 +10°C° 0 mm 1 mps 758 mmHg 56%
    01:00 +10°C° 0 mm 1 mps 758 mmHg 57%
    02:00 +9°C° 0 mm 1 mps 758 mmHg 57%
    03:00 +8°C° 0 mm 0 mps 757 mmHg 58%
    04:00 +7°C° 0 mm 0 mps 757 mmHg 59%
    05:00 +7°C° 0 mm 0 mps 757 mmHg 60%
    06:00 +8°C° 0 mm 0 mps 757 mmHg 56%
    07:00 +10°C° 0 mm 1 mps 757 mmHg 53%
    08:00 +12°C° 0 mm 1 mps 757 mmHg 49%
    09:00 +12°C° 0 mm 1 mps 757 mmHg 46%
    10:00 +13°C° 0 mm 1 mps 757 mmHg 42%
    11:00 +13°C° 0 mm 2 mps 757 mmHg 38%
    12:00 +14°C° 0 mm 2 mps 757 mmHg 38%
    13:00 +14°C° 0 mm 2 mps 757 mmHg 38%
    14:00 +14°C° 0 mm 2 mps 757 mmHg 38%
    15:00 +14°C° 0 mm 2 mps 757 mmHg 38%
    16:00 +14°C° 0 mm 2 mps 756 mmHg 39%
    17:00 +13°C° 0 mm 3 mps 756 mmHg 40%
    18:00 +13°C° 0 mm 2 mps 757 mmHg 44%
    19:00 +12°C° 0 mm 2 mps 757 mmHg 49%
    20:00 +9°C° 0 mm 2 mps 757 mmHg 53%
    21:00 +9°C° 0 mm 2 mps 757 mmHg 55%
    22:00 +8°C° 0 mm 2 mps 757 mmHg 56%
    23:00 +8°C° 0 mm 2 mps 757 mmHg 58%

    22 April, Monday

    Time Temperature Precipitation Wind Pressure Humidity
    00:00 +8°C° 0 mm 1 mps 757 mmHg 58%
    01:00 +8°C° 0 mm 1 mps 758 mmHg 57%
    02:00 +7°C° 0 mm 0 mps 758 mmHg 57%
    03:00 +8°C° 0 mm 1 mps 758 mmHg 57%
    04:00 +8°C° 0 mm 1 mps 758 mmHg 57%
    05:00 +8°C° 0 mm 1 mps 758 mmHg 57%
    06:00 +8°C° 0 mm 2 mps 758 mmHg 54%
    07:00 +10°C° 0 mm 3 mps 759 mmHg 52%
    08:00 +11°C° 0 mm 4 mps 759 mmHg 49%
    09:00 +12°C° 0 mm 4 mps 759 mmHg 46%
    10:00 +13°C° 0 mm 4 mps 759 mmHg 43%
    11:00 +14°C° 0 mm 4 mps 759 mmHg 40%
    12:00 +14°C° 0 mm 4 mps 759 mmHg 40%
    13:00 +14°C° 0 mm 4 mps 759 mmHg 40%
    14:00 +14°C° 0 mm 4 mps 759 mmHg 41%
    15:00 +14°C° 0 mm 4 mps 759 mmHg 41%
    16:00 +14°C° 0 mm 4 mps 759 mmHg 41%
    17:00 +14°C° 0 mm 4 mps 759 mmHg 42%
    18:00 +12°C° 0 mm 3 mps 759 mmHg 46%
    19:00 +12°C° 0 mm 2 mps 759 mmHg 50%
    20:00 +10°C° 0 mm 2 mps 759 mmHg 54%
    21:00 +10°C° 0 mm 1 mps 760 mmHg 56%
    22:00 +9°C° 0 mm 1 mps 760 mmHg 57%
    23:00 +9°C° 0 mm 1 mps 760 mmHg 59%

    23 April, Tuesday

    Time Temperature Precipitation Wind Pressure Humidity
    00:00 +9°C° 0 mm 1 mps 760 mmHg 59%
    01:00 +8°C° 0 mm 1 mps 760 mmHg 60%
    02:00 +8°C° 0 mm 1 mps 760 mmHg 61%
    03:00 +8°C° 0 mm 1 mps 760 mmHg 62%
    04:00 +7°C° 0 mm 1 mps 760 mmHg 63%
    05:00 +7°C° 0 mm 1 mps 761 mmHg 64%
    06:00 +9°C° 0 mm 1 mps 761 mmHg 60%
    07:00 +10°C° 0 mm 2 mps 761 mmHg 56%
    08:00 +12°C° 0 mm 3 mps 761 mmHg 52%
    09:00 +13°C° 0 mm 4 mps 761 mmHg 48%
    10:00 +14°C° 0 mm 5 mps 761 mmHg 44%
    11:00 +15°C° 0 mm 6 mps 761 mmHg 40%
    12:00 +15°C° 0 mm 6 mps 761 mmHg 40%
    13:00 +16°C° 0 mm 6 mps 761 mmHg 39%
    14:00 +16°C° 0 mm 6 mps 760 mmHg 39%
    15:00 +16°C° 0 mm 6 mps 760 mmHg 40%
    16:00 +15°C° 0 mm 6 mps 760 mmHg 41%
    17:00 +15°C° 0 mm 6 mps 760 mmHg 42%
    18:00 +13°C° 0 mm 5 mps 760 mmHg 46%
    19:00 +12°C° 0 mm 4 mps 760 mmHg 51%
    20:00 +10°C° 0 mm 3 mps 760 mmHg 55%
    21:00 +9°C° 0 mm 3 mps 760 mmHg 56%
    22:00 +9°C° 0 mm 3 mps 761 mmHg 57%
    23:00 +8°C° 0 mm 2 mps 761 mmHg 57%

    24 April, Wednesday

    Time Temperature Precipitation Wind Pressure Humidity
    00:00 +8°C° 0 mm 2 mps 761 mmHg 59%
    01:00 +8°C° 0 mm 3 mps 761 mmHg 61%
    02:00 +7°C° 0 mm 3 mps 761 mmHg 62%
    03:00 +7°C° 0 mm 3 mps 761 mmHg 63%
    04:00 +7°C° 0 mm 3 mps 761 mmHg 64%
    05:00 +7°C° 0 mm 3 mps 761 mmHg 65%
    06:00 +7°C° 0 mm 4 mps 761 mmHg 60%
    07:00 +9°C° 0 mm 5 mps 761 mmHg 56%
    08:00 +10°C° 0 mm 6 mps 762 mmHg 51%
    09:00 +13°C° 0 mm 6 mps 762 mmHg 47%
    10:00 +14°C° 0 mm 6 mps 762 mmHg 44%
    11:00 +15°C° 0 mm 6 mps 762 mmHg 40%
    12:00 +16°C° 0 mm 6 mps 761 mmHg 40%
    13:00 +16°C° 0 mm 5 mps 761 mmHg 39%
    14:00 +17°C° 0 mm 5 mps 761 mmHg 39%
    15:00 +17°C° 0 mm 5 mps 761 mmHg 40%
    16:00 +17°C° 0 mm 5 mps 761 mmHg 41%
    17:00 +16°C° 0 mm 5 mps 760 mmHg 42%
    18:00 +14°C° 0 mm 4 mps 761 mmHg 47%
    19:00 +13°C° 0 mm 4 mps 761 mmHg 52%
    20:00 +11°C° 0 mm 3 mps 761 mmHg 57%
    21:00 +10°C° 0 mm 2 mps 761 mmHg 58%
    22:00 +10°C° 0 mm 2 mps 761 mmHg 60%
    23:00 +9°C° 0 mm 2 mps 761 mmHg 61%
    Show more